Sanford, FL

6:37 AM EDT on March 30, 2017 (GMT -0400)
Orlando Sanford

Weather History for KSFB - March, 2013

Change the Weather History Date:

Wednesday, March 20, 2013

  Actual Average Record
Temperature  
Mean Temperature 66 °F -  
Max Temperature 75 °F 78 °F 93 °F (2003)
Min Temperature 57 °F 54 °F 37 °F (1985)
Cooling Degree Days 1    
Growing Degree Days 16 (Base 50)    
Moisture  
Dew Point 61 °F    
Average Humidity 85    
Maximum Humidity 96    
Minimum Humidity 66    
Precipitation  
Precipitation 0.29 in - - ()
Sea Level Pressure  
Sea Level Pressure 29.92 in    
Wind  
Wind Speed 6 mph (NE)    
Max Wind Speed 17 mph    
Max Gust Speed 30 mph    
Visibility 8 miles    
Events Rain , Thunderstorm    
Averages and records for this station are not official NWS values.
T = Trace of Precipitation, MM = Missing Value Source: NWS Daily Summary

Daily Weather History Graph

Daily Weather History Graph

Search for Another Location

Airport or City:

Trip Planner

Search our weather history database for the weather conditions in past years. The results will help you decide how hot, cold, wet, or windy it might be!

Date:

Astronomy

Mar. 20, 2013 Rise Set
Actual Time 7:28 AM EDT 7:36 PM EDT
Civil Twilight 7:04 AM EDT 8:00 PM EDT
Nautical Twilight 6:37 AM EDT 8:27 PM EDT
Astronomical Twilight 6:09 AM EDT 8:55 PM EDT
Moon 1:35 PM EDT (3/20) 2:41 AM EDT (3/20)
Length of Visible Light 12h 55m
Length of Day
12h 07m
First Quarter, 59% of the Moon is Illuminated
Mar 20
First Quarter
Mar 27
Full
Apr 3
Last Quarter
Apr 10
New
Apr 18
First Quarter

Hourly Weather History & Observations

Time (EDT) Temp. Dew Point Humidity Pressure Visibility Wind Dir Wind Speed Gust Speed Precip Events Conditions
12:53 AM 66.9 °F 62.1 °F 84% 29.99 in 10.0 mi Calm Calm - N/A   Overcast
1:53 AM 66.0 °F 62.1 °F 87% 29.98 in 10.0 mi NNE 4.6 mph - N/A   Mostly Cloudy
2:33 AM 66.2 °F 62.6 °F 88% 29.97 in 2.5 mi NE 9.2 mph - 0.12 in Rain Rain
2:36 AM 66.2 °F 62.6 °F 88% 29.98 in 5.0 mi NE 10.4 mph - 0.12 in Rain Light Rain
2:53 AM 63.0 °F 54.0 °F 72% 29.98 in 10.0 mi ENE 6.9 mph - 0.12 in   Scattered Clouds
3:53 AM 64.0 °F 62.1 °F 93% 29.96 in 10.0 mi NNE 5.8 mph - N/A   Clear
4:53 AM 62.1 °F 59.0 °F 90% 29.94 in 10.0 mi East 6.9 mph - N/A   Clear
5:53 AM 61.0 °F 57.9 °F 90% 29.93 in 10.0 mi East 4.6 mph - N/A   Clear
6:53 AM 62.1 °F 57.0 °F 84% 29.96 in 10.0 mi ENE 3.5 mph - N/A   Overcast
7:53 AM 63.0 °F 57.9 °F 84% 29.95 in 10.0 mi ENE 4.6 mph - N/A   Mostly Cloudy
8:53 AM 64.9 °F 59.0 °F 81% 29.95 in 10.0 mi ENE 6.9 mph - N/A   Overcast
8:57 AM 64.4 °F 59.0 °F 83% 29.96 in 10.0 mi ENE 5.8 mph - 0.00 in Rain , Thunderstorm Light Thunderstorms and Rain
9:38 AM 64.4 °F 60.8 °F 88% 29.99 in 1.0 mi West 5.8 mph - 0.09 in Rain Light Rain
9:50 AM 64.4 °F 60.8 °F 88% 29.99 in 3.0 mi ESE 4.6 mph - 0.12 in Rain Rain
9:53 AM 64.9 °F 61.0 °F 87% 29.99 in 5.0 mi SE 8.1 mph - 0.12 in Rain Light Rain
10:53 AM 66.0 °F 63.0 °F 90% 29.98 in 10.0 mi ESE 8.1 mph - 0.01 in   Overcast
11:53 AM 69.1 °F 63.0 °F 81% 29.97 in 10.0 mi East 6.9 mph - N/A   Mostly Cloudy
12:22 PM 69.8 °F 64.4 °F 83% 29.97 in 10.0 mi East 4.6 mph - N/A   Mostly Cloudy
12:53 PM 70.0 °F 64.0 °F 81% 29.93 in 10.0 mi SE 4.6 mph - N/A   Mostly Cloudy
1:09 PM 71.6 °F 64.4 °F 78% 29.92 in 10.0 mi ESE 4.6 mph - N/A   Scattered Clouds
1:53 PM 71.1 °F 64.0 °F 78% 29.89 in 10.0 mi Variable 3.5 mph - N/A   Mostly Cloudy
2:53 PM 72.0 °F 64.9 °F 78% 29.88 in 10.0 mi Variable 3.5 mph - N/A   Mostly Cloudy
3:49 PM 71.6 °F 64.4 °F 78% 29.84 in 10.0 mi Calm Calm - N/A   Scattered Clouds
3:53 PM 73.0 °F 64.0 °F 73% 29.83 in 10.0 mi Calm Calm - N/A   Partly Cloudy
4:53 PM 73.0 °F 61.0 °F 66% 29.81 in 10.0 mi NNE 8.1 mph - 0.00 in   Mostly Cloudy
5:53 PM 70.0 °F 60.1 °F 71% 29.81 in 10.0 mi NNE 8.1 mph - N/A   Partly Cloudy
6:53 PM 66.9 °F 60.1 °F 79% 29.83 in 10.0 mi NE 5.8 mph - 0.00 in   Mostly Cloudy
7:53 PM 64.0 °F 61.0 °F 90% 29.87 in 5.0 mi NNW 9.2 mph - 0.03 in Rain , Thunderstorm Heavy Thunderstorms and Rain
7:58 PM 64.4 °F 60.8 °F 88% 29.87 in 2.5 mi North 11.5 mph 19.6 mph N/A Rain , Thunderstorm Heavy Thunderstorms and Rain
8:12 PM 62.6 °F 60.8 °F 94% 29.89 in 4.0 mi NNE 13.8 mph 23.0 mph N/A Rain , Thunderstorm Heavy Thunderstorms and Rain
8:23 PM 60.8 °F 57.2 °F 88% 29.91 in 2.0 mi NNW 17.3 mph 29.9 mph N/A Rain , Thunderstorm Heavy Thunderstorms and Rain
8:34 PM 60.8 °F 57.2 °F 88% 29.90 in 5.0 mi NNW 15.0 mph - N/A Rain , Thunderstorm Thunderstorms and Rain
8:53 PM 59.0 °F 57.0 °F 93% 29.90 in 10.0 mi NNW 11.5 mph - N/A Rain , Thunderstorm Light Thunderstorms and Rain
9:53 PM 59.0 °F 57.0 °F 93% 29.88 in 10.0 mi NW 4.6 mph - 0.01 in Thunderstorm Thunderstorm
10:53 PM 59.0 °F 57.0 °F 93% 29.87 in 10.0 mi NNW 11.5 mph - N/A   Overcast
11:53 PM 57.0 °F 55.9 °F 96% 29.87 in 10.0 mi WNW 4.6 mph - N/A   Clear